Change the Weather History Date:

Saturday, November 23, 2013

  Actual Average Record
Temperature  
Mean Temperature 76 °F -  
Max Temperature 89 °F 83 °F 93 °F (2002)
Min Temperature 62 °F 56 °F 55 °F (2005)
Cooling Degree Days 10    
Growing Degree Days 26 (Base 50)    
Moisture  
Dew Point 53 °F    
Average Humidity 51    
Maximum Humidity 83    
Minimum Humidity 29    
Precipitation  
Precipitation 0.00 in 0.01 in - ()
Sea Level Pressure  
Sea Level Pressure 29.90 in    
Wind  
Wind Speed 5 mph ()    
Max Wind Speed 9 mph    
Max Gust Speed -    
Visibility 2.7 miles    
Events      
Averages and records for this station are not official NWS values.
T = Trace of Precipitation, MM = Missing Value Source: Averaged Metar Reports

Daily Weather History Graph

Daily Weather History Graph

Search for Another Location

Airport or City:

Trip Planner

Search our weather history database for the weather conditions in past years. The results will help you decide how hot, cold, wet, or windy it might be!

Date:

Astronomy

Nov. 23, 2013 Rise Set
Actual Time 6:58 AM IST 5:53 PM IST
Civil Twilight 6:34 AM IST 6:17 PM IST
Nautical Twilight 6:06 AM IST 6:44 PM IST
Astronomical Twilight 5:39 AM IST 7:11 PM IST
Moon 10:43 PM IST (11/23) 11:10 AM IST (11/23)
Length of Visible Light 11h 43m
Length of Day
10h 55m
Waning Gibbous, 73% of the Moon is Illuminated
Nov 23
Waning Gibbous
Nov 26
Last Quarter
Dec 3
New
Dec 9
First Quarter
Dec 17
Full

Hourly Weather History & Observations

Time (IST) Temp. Heat Index Dew Point Humidity Pressure Visibility Wind Dir Wind Speed Gust Speed Precip Events Conditions
12:10 AM 68.0 °F - 48.2 °F 49% 29.92 in 2.5 mi NE 9.2 mph - N/A   Smoke
12:40 AM 69.8 °F - 48.2 °F 46% 29.92 in 2.5 mi NE 6.9 mph - N/A   Smoke
1:10 AM 68.0 °F - 48.2 °F 49% 29.89 in 2.5 mi NE 6.9 mph - N/A   Smoke
1:40 AM 66.2 °F - 48.2 °F 52% 29.89 in 2.5 mi NE 5.8 mph - N/A   Smoke
2:10 AM 66.2 °F - 48.2 °F 52% 29.89 in 2.5 mi NE 5.8 mph - N/A   Smoke
2:30 AM 67 °F - 51 °F 46% 29.89 in 2 mi NE 4.6 mph - -  
2:40 AM 66.2 °F - 48.2 °F 52% 29.89 in 2.5 mi NE 4.6 mph - N/A   Smoke
3:10 AM 64.4 °F - 48.2 °F 56% 29.89 in 2.5 mi NNE 4.6 mph - N/A   Smoke
3:40 AM 62.6 °F - 48.2 °F 59% 29.89 in 2.5 mi NE 4.6 mph - N/A   Smoke
4:10 AM 64.4 °F - 48.2 °F 56% 29.86 in 2.5 mi ENE 6.9 mph - N/A   Smoke
4:40 AM 64.4 °F - 48.2 °F 56% 29.86 in 2.5 mi ENE 5.8 mph - N/A   Smoke
5:10 AM 64.4 °F - 48.2 °F 56% 29.86 in 2.5 mi NE 5.8 mph - N/A   Smoke
5:30 AM 69 °F - 59 °F 64% 29.86 in 2 mi Calm Calm - -   Haze
6:10 AM 64.4 °F - 48.2 °F 56% 29.89 in 2.5 mi NE 5.8 mph - N/A   Smoke
6:40 AM 62.6 °F - 48.2 °F 59% 29.89 in 2.5 mi ENE 5.8 mph - N/A   Smoke
7:10 AM 62.6 °F - 48.2 °F 59% 29.92 in 2.2 mi NE 5.8 mph - N/A   Haze
8:10 AM 64.4 °F - 50.0 °F 59% 29.95 in 1.9 mi NNE 5.8 mph - N/A   Haze
8:30 AM 66 °F - 54 °F 55% 29.96 in 1 mi NE 4.6 mph - -   Haze
8:40 AM 68.0 °F - 50.0 °F 52% 29.95 in 1.9 mi NNE 6.9 mph - N/A   Haze
9:40 AM 73.4 °F - 51.8 °F 47% 29.98 in 2.2 mi NE 5.8 mph - N/A   Smoke
11:10 AM 80.6 °F - 51.8 °F 37% 29.95 in 3.1 mi NE 6.9 mph - N/A   Smoke
11:30 AM 82 °F - 55 °F 29% 29.94 in 2 mi East 6.9 mph - -   Clear
11:40 AM 84.2 °F 82.8 °F 53.6 °F 35% 29.92 in 3.1 mi East 5.8 mph - N/A   Smoke
12:10 PM 84.2 °F - 51.8 °F 33% 29.92 in 3.1 mi ENE 6.9 mph - N/A   Smoke
1:10 PM 87.8 °F 85.7 °F 53.6 °F 31% 29.86 in 3.7 mi East 5.8 mph - N/A   Unknown
1:40 PM 87.8 °F 85.7 °F 53.6 °F 31% 29.86 in 3.7 mi ENE 4.6 mph - N/A   Unknown
2:10 PM 87.8 °F 85.7 °F 53.6 °F 31% 29.86 in 3.7 mi East 3.5 mph - N/A   Unknown
2:40 PM 89.6 °F 87.3 °F 53.6 °F 29% 29.86 in 3.7 mi ENE 5.8 mph - N/A   Unknown
3:10 PM 89.6 °F 87.7 °F 55.4 °F 31% 29.83 in 3.7 mi East 3.5 mph - N/A   Unknown
3:40 PM 89.6 °F 87.3 °F 53.6 °F 29% 29.83 in 3.7 mi East 3.5 mph - N/A   Unknown
4:10 PM 87.8 °F 86.1 °F 55.4 °F 33% 29.83 in 3.7 mi ENE 3.5 mph - N/A   Unknown
4:40 PM 87.8 °F 85.7 °F 53.6 °F 31% 29.83 in 3.7 mi East 3.5 mph - N/A   Unknown
5:10 PM 86.0 °F 84.2 °F 53.6 °F 33% 29.83 in 3.7 mi ENE 2.3 mph - N/A   Unknown
5:30 PM 83 °F - 60 °F 35% 29.85 in 2 mi NE 2.3 mph - -  
5:40 PM 82.4 °F 82.5 °F 59.0 °F 45% 29.86 in 3.7 mi North 2.3 mph - N/A   Unknown
6:40 PM 75.2 °F - 59.0 °F 57% 29.89 in 2.5 mi North 2.3 mph - N/A   Smoke
7:10 PM 73.4 °F - 57.2 °F 57% 29.89 in 2.5 mi NNE 2.3 mph - N/A   Smoke
7:40 PM 73.4 °F - 59.0 °F 61% 29.89 in 2.5 mi Calm Calm - N/A   Haze
8:10 PM 71.6 °F - 60.8 °F 69% 29.92 in 2.5 mi Calm Calm - N/A   Haze
8:30 PM 69 °F - 60 °F 66% 29.92 in 2 mi North 2.3 mph - -   Haze
8:40 PM 69.8 °F - 57.2 °F 64% 29.92 in 2.5 mi Variable 2.3 mph - N/A   Haze
9:10 PM 69.8 °F - 59.0 °F 68% 29.92 in 2.5 mi Variable 2.3 mph - N/A   Haze
9:40 PM 68.0 °F - 57.2 °F 68% 29.92 in 2.5 mi Variable 2.3 mph - N/A   Haze
10:10 PM 68.0 °F - 57.2 °F 68% 29.92 in 2.5 mi Variable 2.3 mph - N/A   Haze
10:40 PM 66.2 °F - 55.4 °F 68% 29.92 in 2.5 mi NNE 2.3 mph - N/A   Haze
11:10 PM 64.4 °F - 59.0 °F 83% 29.92 in 2.5 mi Calm Calm - N/A   Haze
11:30 PM 64 °F - 58 °F 73% 29.93 in 2 mi NE 2.3 mph - -   Haze
11:40 PM 64.4 °F - 55.4 °F 73% 29.92 in 2.5 mi Variable 2.3 mph - N/A   Haze